This demonstration page uses our WeatherBlox Daily Observations layout. Learn more.

Left ArrowRight Arrow

39.08367, -84.50855

Hourly Observations for November 23, 2015

Temp ( °F °C ) Dew Point ( °F °C ) Humidity (%) Winds ( mph kmh ) Pressure ( in mb ) Visibility ( mi km ) Precip ( " mm )
12:53 am 00:53 Clear 22 -5.6 19 -7.2 89 89 Calm 30.24 1024 10 16 0.00 0.00
1:53 am 01:53 Clear 19 -7.2 17 -8.3 92 92 Calm 30.24 1024 9 14 0.00 0.00
2:53 am 02:53 Mostly Cloudy 21 -6.1 19 -7.2 92 92 Calm 30.24 1024 8 13 0.00 0.00
3:53 am 03:53 Cloudy 23 -5 21 -6.1 92 92 Calm 30.24 1024 8 13 0.00 0.00
4:53 am 04:53 Partly Cloudy 24 -4.4 22 -5.6 91 91 Calm 30.24 1024 9 14 0.00 0.00
5:53 am 05:53 Cloudy 25 -3.9 20 -6.7 81 81 SSW 6 9 30.24 1024 10 16 0.00 0.00
6:53 am 06:53 Mostly Cloudy 25 -3.9 18 -7.8 75 75 S 6 9 30.24 1024 10 16 0.00 0.00
7:53 am 07:53 Cloudy 27 -2.8 19 -7.2 72 72 S 5 7 30.25 1024 10 16 0.00 0.00
8:53 am 08:53 Mostly Cloudy 29 -1.7 20 -6.7 69 69 S 9 15 30.24 1024 10 16 0.00 0.00
9:53 am 09:53 Mostly Cloudy 32 0 22 -5.6 66 66 S 14 22 30.23 1024 10 16 0.00 0.00
10:53 am 10:53 Mostly Cloudy 36 2.2 21 -6.1 55 55 S 10 17 30.22 1023 10 16 0.00 0.00
11:53 am 11:53 Sunny 41 5 19 -7.2 41 41 SSW 16 26 30.18 1022 10 16 0.00 0.00
12:53 pm 12:53 Sunny 44 6.7 19 -7.2 37 37 SSW 17 28 30.15 1021 10 16 0.00 0.00
1:53 pm 13:53 Sunny 46 7.8 22 -5.6 38 38 WSW 16 26 30.14 1021 10 16 0.00 0.00
2:53 pm 14:53 Sunny 46 7.8 23 -5 40 40 WSW 20 31 30.15 1021 10 16 0.00 0.00
3:53 pm 15:53 Sunny 46 7.8 24 -4.4 42 42 WSW 10 17 30.16 1021 10 16 0.00 0.00
4:53 pm 16:53 Sunny 45 7.2 24 -4.4 44 44 WSW 9 15 30.17 1022 10 16 0.00 0.00
5:53 pm 17:53 Mostly Cloudy 42 5.6 25 -3.9 51 51 SW 8 13 30.19 1023 10 16 0.00 0.00
6:53 pm 18:53 Mostly Cloudy 39 3.9 25 -3.9 57 57 SW 6 9 30.21 1023 10 16 0.00 0.00
7:53 pm 19:53 Partly Cloudy 38 3.3 26 -3.3 62 62 SW 8 13 30.23 1024 10 16 0.00 0.00
8:53 pm 20:53 Clear 37 2.8 26 -3.3 65 65 SW 8 13 30.24 1024 10 16 0.00 0.00
9:53 pm 21:53 Clear 34 1.1 26 -3.3 73 73 Calm 30.25 1024 10 16 0.00 0.00
10:53 pm 22:53 Clear 30 -1.1 26 -3.3 85 85 Calm 30.26 1025 10 16 0.00 0.00
11:53 pm 23:53 Clear 29 -1.7 26 -3.3 89 89 Calm 30.27 1025 10 16 0.00 0.00

Powered by AerisWeather